Weather History for St. Joseph, MO

Change the Weather History Date:

Friday, March 15, 2013

  Actual Average Record
Temperature  
Mean Temperature 56 °F 43 °F  
Max Temperature 82 °F 54 °F 82 °F (2013)
Min Temperature 29 °F 31 °F 9 °F (1949)
Degree Days  
Heating Degree Days 9 22  
Month to date heating degree days 420 382  
Since 1 July heating degree days 4524 4690  
Cooling Degree Days 0 0  
Month to date cooling degree days 0 0  
Year to date cooling degree days 0 0  
Growing Degree Days 6 (Base 50)    
Moisture  
Dew Point 35 °F    
Average Humidity 55    
Maximum Humidity 92    
Minimum Humidity 18    
Precipitation  
Precipitation 0.00 in 0.08 in 5.09 in (1919)
Month to date precipitation 1.19 0.92  
Year to date precipitation 2.20 2.41  
Sea Level Pressure  
Sea Level Pressure 29.83 in    
Wind  
Wind Speed 7 mph (WNW)    
Max Wind Speed 22 mph    
Max Gust Speed 29 mph    
Visibility 8 miles    
Events      
T = Trace of Precipitation, MM = Missing Value Source: NWS Daily Summary

Daily Weather History Graph

Daily Weather History Graph

Search for Another Location

Airport:

Trip Planner

Search our weather history database for the weather conditions in past years. The results will help you decide how hot, cold, wet, or windy it might be!

Date:

Astronomy

Mar. 15, 2013 Rise Set
Actual Time 7:30 AM CDT 7:26 PM CDT
Civil Twilight 7:03 AM CDT 7:53 PM CDT
Nautical Twilight 6:32 AM CDT 8:25 PM CDT
Astronomical Twilight 6:00 AM CDT 8:56 PM CDT
Moon 9:22 AM CDT (3/15) 11:41 PM CDT (3/15)
Length of Visible Light 12h 49m
Length of Day
11h 56m
Waxing Crescent, 15% of the Moon is Illuminated
Mar 15
Waxing Crescent
Mar 19
First Quarter
Mar 27
Full
Apr 2
Last Quarter
Apr 10
New

Hourly Weather History & Observations

Time (CDT) Temp. Windchill Dew Point Humidity Pressure Visibility Wind Dir Wind Speed Gust Speed Precip Events Conditions
12:53 AM 37.0 °F - 33.1 °F 86% 30.08 in 10.0 mi Calm Calm - N/A   Clear
1:53 AM 35.1 °F - 30.9 °F 85% 30.05 in 10.0 mi Calm Calm - N/A   Clear
2:53 AM 33.1 °F - 30.0 °F 89% 30.04 in 10.0 mi Calm Calm - N/A   Clear
3:53 AM 30.0 °F - 27.0 °F 88% 30.01 in 9.0 mi Calm Calm - N/A   Clear
4:53 AM 32.0 °F - 28.9 °F 88% 29.99 in 9.0 mi Calm Calm - N/A   Clear
5:53 AM 32.0 °F - 30.0 °F 92% 29.96 in 7.0 mi Calm Calm - N/A   Clear
6:43 AM 30.2 °F - 28.4 °F 93% 29.94 in 1.8 mi Calm Calm - N/A   Clear
6:53 AM 32.0 °F - 30.0 °F 92% 29.95 in 0.8 mi Calm Calm - N/A   Clear
7:00 AM 33.8 °F - 30.2 °F 87% 29.94 in 1.5 mi Calm Calm - N/A   Clear
7:06 AM 33.8 °F 30.8 °F 30.2 °F 87% 29.94 in 3.0 mi SSW 3.5 mph - N/A   Clear
7:53 AM 32.0 °F 28.7 °F 30.0 °F 92% 29.93 in 6.0 mi SSE 3.5 mph - N/A   Clear
8:53 AM 37.9 °F - 34.0 °F 86% 29.90 in 8.0 mi Calm Calm - N/A   Clear
9:53 AM 46.9 °F - 37.9 °F 71% 29.87 in 10.0 mi Calm Calm - N/A   Clear
10:53 AM 61.0 °F - 41.0 °F 48% 29.83 in 10.0 mi SSW 10.4 mph - N/A   Clear
11:53 AM 66.9 °F - 43.0 °F 42% 29.79 in 10.0 mi SW 11.5 mph - N/A   Clear
12:53 PM 73.9 °F - 41.0 °F 30% 29.76 in 10.0 mi SW 12.7 mph 21.9 mph N/A   Clear
1:53 PM 79.0 °F - 39.9 °F 25% 29.73 in 10.0 mi West 12.7 mph 21.9 mph N/A   Clear
2:53 PM 80.1 °F - 37.0 °F 21% 29.70 in 10.0 mi WSW 11.5 mph 20.7 mph N/A   Clear
3:53 PM 81.0 °F - 35.1 °F 19% 29.68 in 10.0 mi West 9.2 mph - N/A   Clear
4:53 PM 80.1 °F - 34.0 °F 19% 29.65 in 10.0 mi NW 8.1 mph - N/A   Clear
5:53 PM 77.0 °F - 39.0 °F 25% 29.65 in 10.0 mi North 6.9 mph - N/A   Clear
6:53 PM 73.0 °F - 37.9 °F 28% 29.65 in 10.0 mi North 4.6 mph - N/A   Clear
7:53 PM 60.1 °F - 37.9 °F 44% 29.65 in 10.0 mi North 8.1 mph - N/A   Clear
8:53 PM 55.0 °F - 37.9 °F 53% 29.68 in 10.0 mi North 8.1 mph - N/A   Clear
9:53 PM 55.0 °F - 41.0 °F 59% 29.70 in 10.0 mi North 11.5 mph - N/A   Clear
10:53 PM 54.0 °F - 42.1 °F 64% 29.72 in 10.0 mi North 15.0 mph - N/A   Partly Cloudy
11:53 PM 51.1 °F - 42.1 °F 71% 29.74 in 10.0 mi North 16.1 mph - N/A   Clear